CFDAA CSX7-CYZR

Flight info

Callsign CFDAA
Flight time N/A
Altitude 4000
Route BOSEP DCT CYZR/N0193F050 DCT HAVOK DCT CYXU DCT TETOS DCT CYKF/N0191F040 SIGTU·RNAV/15
Aircraft BE58/L-SBGRZ/EB2

Departure

Time 2026-04-25 00:37
Airport Sexsmith (Exeter) Airport (CSX7)

Arrival

Time N/A
Airport Chris Hadfield Airport (CYZR)
Time Latitude Longitude Altitude Speed Heading
2026-04-25 00:37 43.23058 -81.73897 3997 ft 155 kts 240°
2026-04-25 00:37 43.22476 -81.75146 3994 ft 156 kts 239°
2026-04-25 00:37 43.22035 -81.76471 4001 ft 153 kts 263°
2026-04-25 00:38 43.21998 -81.77909 4004 ft 153 kts 266°
2026-04-25 00:38 43.21912 -81.79386 4006 ft 154 kts 264°
2026-04-25 00:38 43.21799 -81.80846 4000 ft 154 kts 263°
2026-04-25 00:38 43.21682 -81.82289 4006 ft 154 kts 263°
2026-04-25 00:39 43.21564 -81.83749 4002 ft 154 kts 263°
2026-04-25 00:39 43.21444 -81.85209 4003 ft 154 kts 263°
2026-04-25 00:39 43.21325 -81.86665 4003 ft 154 kts 263°
2026-04-25 00:39 43.21205 -81.88126 4003 ft 154 kts 263°
2026-04-25 00:40 43.21085 -81.89591 4003 ft 155 kts 263°
2026-04-25 00:40 43.20965 -81.91059 4003 ft 155 kts 263°
2026-04-25 00:40 43.20845 -81.92523 4001 ft 154 kts 263°
2026-04-25 00:40 43.20724 -81.93986 4003 ft 155 kts 263°
2026-04-25 00:41 43.20603 -81.95455 4005 ft 155 kts 263°
2026-04-25 00:41 43.20482 -81.96917 4004 ft 154 kts 263°
2026-04-25 00:41 43.20362 -81.98377 4006 ft 154 kts 263°
2026-04-25 00:41 43.20240 -81.99841 4006 ft 155 kts 263°
2026-04-25 00:42 43.20116 -82.01309 4012 ft 154 kts 262°
2026-04-25 00:42 43.19980 -82.02768 4008 ft 154 kts 263°
2026-04-25 00:42 43.19853 -82.04221 4003 ft 153 kts 263°
2026-04-25 00:42 43.19751 -82.05673 4006 ft 153 kts 263°
2026-04-25 00:43 43.19635 -82.07129 4008 ft 154 kts 263°
2026-04-25 00:43 43.19511 -82.08593 4006 ft 155 kts 263°
2026-04-25 00:43 43.19385 -82.10061 4010 ft 155 kts 260°
2026-04-25 00:43 43.19221 -82.11511 4007 ft 154 kts 262°
2026-04-25 00:44 43.19121 -82.12971 4005 ft 154 kts 262°
2026-04-25 00:44 43.18980 -82.14421 4006 ft 153 kts 262°
2026-04-25 00:44 43.18887 -82.15884 4006 ft 155 kts 264°
2026-04-25 00:44 43.18783 -82.17356 3996 ft 155 kts 263°
2026-04-25 00:45 43.18661 -82.18772 3863 ft 146 kts 262°
2026-04-25 00:45 43.18542 -82.20107 3722 ft 137 kts 262°
2026-04-25 00:45 43.18431 -82.21374 3582 ft 130 kts 261°
2026-04-25 00:45 43.18323 -82.22580 3445 ft 125 kts 261°
2026-04-25 00:46 43.18222 -82.23751 3314 ft 122 kts 261°
2026-04-25 00:46 43.18123 -82.24902 3187 ft 121 kts 261°
2026-04-25 00:46 43.17928 -82.27190 2928 ft 121 kts 260°
2026-04-25 00:47 43.17829 -82.28342 2808 ft 122 kts 260°
2026-04-25 00:47 43.17733 -82.29464 2801 ft 116 kts 259°
2026-04-25 00:47 43.17639 -82.30546 2792 ft 113 kts 258°
2026-04-25 00:47 43.17549 -82.31605 2792 ft 111 kts 259°
2026-04-25 00:48 43.17458 -82.32646 2795 ft 109 kts 259°
2026-04-25 00:48 43.17370 -82.33679 2794 ft 109 kts 259°
2026-04-25 00:48 43.17281 -82.34707 2792 ft 109 kts 259°
2026-04-25 00:48 43.17193 -82.35735 2794 ft 109 kts 258°
2026-04-25 00:49 43.17089 -82.36762 2797 ft 110 kts 252°
2026-04-25 00:49 43.16721 -82.37726 2815 ft 119 kts 231°
2026-04-25 00:49 43.16141 -82.38566 2811 ft 126 kts 228°
2026-04-25 00:49 43.15542 -82.39450 2809 ft 127 kts 228°
2026-04-25 00:50 43.14933 -82.40336 2810 ft 129 kts 227°
2026-04-25 00:50 43.14313 -82.41237 2810 ft 131 kts 227°
2026-04-25 00:50 43.13680 -82.42157 2811 ft 131 kts 228°
2026-04-25 00:50 43.13058 -82.43059 2811 ft 130 kts 226°
2026-04-25 00:51 43.12327 -82.43752 2809 ft 132 kts 207°
2026-04-25 00:51 43.11429 -82.44063 2807 ft 136 kts 189°
2026-04-25 00:51 43.10475 -82.43907 2807 ft 142 kts 169°
2026-04-25 00:51 43.09593 -82.43244 2806 ft 149 kts 147°
2026-04-25 00:52 43.08868 -82.42291 2807 ft 139 kts 141°
2026-04-25 00:52 43.08188 -82.41396 2679 ft 135 kts 144°
2026-04-25 00:52 43.07492 -82.40539 2504 ft 135 kts 144°
2026-04-25 00:52 43.06805 -82.39658 2330 ft 135 kts 143°
2026-04-25 00:53 43.06118 -82.38783 2146 ft 134 kts 143°
2026-04-25 00:53 43.05464 -82.37942 1973 ft 125 kts 142°
2026-04-25 00:53 43.04854 -82.37160 1805 ft 116 kts 142°
2026-04-25 00:53 43.04277 -82.36427 1649 ft 111 kts 142°
2026-04-25 00:54 43.03717 -82.35724 1491 ft 108 kts 141°
2026-04-25 00:54 43.03173 -82.35030 1338 ft 107 kts 140°
2026-04-25 00:54 43.02637 -82.34347 1198 ft 104 kts 140°
2026-04-25 00:54 43.02104 -82.33665 1054 ft 106 kts 141°
2026-04-25 00:55 43.01583 -82.32950 913 ft 108 kts 139°
2026-04-25 00:55 43.01050 -82.32184 1485 ft 114 kts 139°
2026-04-25 00:55 43.00470 -82.31425 2148 ft 119 kts 140°
2026-04-25 00:55 42.99847 -82.30546 2606 ft 140 kts 141°
2026-04-25 00:56 42.99127 -82.29533 3026 ft 154 kts 141°
2026-04-25 00:56 42.98605 -82.28231 3539 ft 166 kts 98°
2026-04-25 00:56 42.98921 -82.26721 4042 ft 169 kts 60°
2026-04-25 00:56 42.99314 -82.25214 4563 ft 171 kts 82°
2026-04-25 00:57 42.99387 -82.23560 4993 ft 185 kts 89°
2026-04-25 00:57 42.99457 -82.21684 5013 ft 208 kts 88°
2026-04-25 00:57 42.99546 -82.19664 5011 ft 217 kts 88°
2026-04-25 00:57 42.99643 -82.17591 5010 ft 221 kts 88°